"Time","Temp","Dewpoint","Humidity","Pressure","Direction","Speed","Gust","Precip","PrecipRate"
"00:04:59","78.1","71.3","79.6","30.24","178","0.5","2.3","0.00","0.00"
"00:09:56","77.9","71.2","80","30.24","178","0.8","2.3","0.00","0.00"
"00:14:56","77.7","71.2","80.5","30.24","178","0","2.3","0.00","0.00"
"00:19:59","77.5","71.2","81","30.24","177","0","0","0.00","0.00"
"00:24:57","77.3","71","81","30.24","171","0","0","0.00","0.00"
"00:29:58","77.3","71","81","30.25","166","0","1.2","0.00","0.00"
"00:34:55","77.2","71","81.3","30.25","155","0.6","3.5","0.00","0.00"
"00:39:57","77.1","71.2","82","30.25","155","0.8","3.5","0.00","0.00"
"00:44:59","77","71.1","82","30.25","154","0.9","3.5","0.00","0.00"
"00:49:57","76.9","71","82","30.25","153","0.7","3","0.00","0.00"
"00:54:59","76.8","70.9","82","30.25","153","0.7","3.5","0.00","0.00"
"00:59:57","76.7","70.8","82","30.25","152","0.6","2.3","0.00","0.00"
"01:04:58","76.7","70.8","82","30.24","165","1.5","5","0.00","0.00"
"01:09:59","76.7","70.8","82","30.24","156","2","4.6","0.00","0.00"
"01:14:56","76.7","70.8","82","30.24","159","1.5","5","0.00","0.00"
"01:19:58","76.7","70.8","82","30.24","149","2.1","6","0.00","0.00"
"01:24:56","76.8","70.9","82","30.24","152","1.1","3.5","0.00","0.00"
"01:29:58","76.7","70.8","82","30.24","151","1.6","3.5","0.00","0.00"
"01:34:57","76.6","70.7","82","30.24","149","1.6","5","0.00","0.00"
"01:39:58","76.6","70.7","82","30.24","162","1.5","5","0.00","0.00"
"01:44:56","76.5","70.6","82","30.24","174","1.6","4.6","0.00","0.00"
"01:49:58","76.5","70.6","82","30.24","192","1.6","4","0.00","0.00"
"01:54:56","76.4","70.5","82","30.24","170","1.8","5","0.00","0.00"
"01:59:58","76.3","70.4","82","30.24","167","1.4","4.6","0.00","0.00"
"02:04:59","76.1","70.5","82.6","30.24","180","1.3","3.5","0.00","0.00"
"02:09:57","75.9","70.4","83","30.24","180","1.4","3.5","0.00","0.00"
"02:14:58","75.8","70.3","83","30.24","180","0.7","2.3","0.00","0.00"
"02:19:56","75.6","70.3","83.9","30.24","180","0.5","1.2","0.00","0.00"
"02:24:58","75.4","70.2","84","30.24","180","0.1","1.2","0.00","0.00"
"02:29:56","75.2","70","84","30.24","180","0.1","1.2","0.00","0.00"
"02:34:58","75.1","69.9","84","30.24","180","0.6","2.3","0.00","0.00"
"02:39:59","75","69.8","84","30.24","180","1","3.5","0.00","0.00"
"02:44:58","74.9","70.1","84.9","30.24","180","0.1","2.3","0.00","0.00"
"02:49:57","74.8","70","85","30.24","180","0.2","2","0.00","0.00"
"02:54:59","74.6","69.8","85","30.24","180","0.3","2.3","0.00","0.00"
"02:59:57","74.4","69.6","85","30.24","180","0.6","2","0.00","0.00"
"03:04:58","74.3","69.7","85.7","30.24","180","0.5","2.3","0.00","0.00"
"03:09:57","74.1","69.6","86","30.24","180","0","1","0.00","0.00"
"03:14:58","74","69.5","86","30.24","180","0","1.2","0.00","0.00"
"03:19:56","73.8","69.4","86.2","30.24","180","0.2","1.2","0.00","0.00"
"03:24:57","73.6","69.5","87","30.24","180","0","1.2","0.00","0.00"
"03:29:59","73.4","69.3","87","30.24","180","0","1.2","0.00","0.00"
"03:34:56","73.2","69.1","87","30.24","180","0.4","2.3","0.00","0.00"
"03:39:56","73","69.2","88","30.24","180","0.2","3.5","0.00","0.00"
"03:44:56","73","69.2","88","30.24","180","0.2","3.5","0.00","0.00"
"03:49:58","72.9","69.1","88","30.24","180","0","1.2","0.00","0.00"
"03:54:59","72.8","69","88","30.24","180","0","0","0.00","0.00"
"03:59:57","72.7","69.1","88.4","30.24","180","0.1","1.2","0.00","0.00"
"04:04:58","72.6","69.2","89","30.24","180","0.2","2.3","0.00","0.00"
"04:09:56","72.5","69.1","89","30.24","180","0.1","2.3","0.00","0.00"
"04:14:59","72.5","69.1","89","30.24","180","0.1","1.2","0.00","0.00"
"04:19:56","72.4","69","89","30.24","180","0","0","0.00","0.00"
"04:24:59","72.1","68.9","89.5","30.24","180","0","0","0.00","0.00"
"04:29:57","71.9","68.8","90","30.25","180","0","0","0.00","0.00"
"04:34:59","71.7","68.6","90","30.25","180","0","0","0.00","0.00"
"04:39:56","71.5","68.4","90","30.25","180","0","0","0.00","0.00"
"04:44:59","71.2","68.3","90.7","30.25","180","0","0","0.00","0.00"
"04:49:56","70.9","68.1","91","30.25","180","0","0","0.00","0.00"
"04:54:57","70.8","68.2","91.6","30.25","180","0","0","0.00","0.00"
"04:59:59","70.7","68.3","92","30.25","180","0","0","0.00","0.00"
"05:04:57","70.6","68.2","92","30.25","180","0","0","0.00","0.00"
"05:09:56","70.5","68.1","92.2","30.25","180","0","0","0.00","0.00"
"05:14:56","70.4","68","92","30.25","180","0","0","0.00","0.00"
"05:19:58","70.2","68.1","92.8","30.25","180","0","0","0.00","0.00"
"05:24:56","70.1","68","93","30.25","180","0","0","0.00","0.00"
"05:29:59","70","67.9","93","30.25","180","0","0","0.00","0.00"
"05:34:57","69.9","67.9","93.3","30.25","180","0","0","0.00","0.00"
"05:39:59","69.9","68.1","94","30.25","180","0","0","0.00","0.00"
"05:44:58","69.8","68","94","30.26","180","0","0","0.00","0.00"
"05:49:57","69.7","67.9","94","30.26","180","0","0","0.00","0.00"
"05:54:56","69.6","67.8","94","30.26","180","0","0","0.00","0.00"
"05:59:59","69.4","67.6","94","30.26","180","0","0","0.00","0.00"
"06:04:58","69.4","67.8","94.5","30.26","180","0","0","0.00","0.00"
"06:09:57","69.5","68","95","30.26","180","0","0","0.00","0.00"
"06:14:59","69.5","68","95","30.26","180","0","0","0.00","0.00"
"06:19:57","69.6","68.1","95","30.26","180","0","0","0.00","0.00"
"06:24:58","69.7","68.2","95","30.26","180","0","0","0.00","0.00"
"06:29:55","69.8","68.3","95","30.26","180","0","0","0.00","0.00"
"06:34:57","70.1","68.6","95","30.26","180","0","0","0.00","0.00"
"06:39:57","70.4","68.9","95","30.26","177","1.1","3.5","0.00","0.00"
"06:44:58","70.7","69.2","95","30.26","176","1.4","4","0.00","0.00"
"06:49:59","71","69.3","94.4","30.26","167","1.2","4","0.00","0.00"
"06:54:56","71.3","69.5","94","30.26","180","1.6","5","0.00","0.00"
"06:59:57","71.6","69.7","93.6","30.26","193","1.8","4","0.00","0.00"
"07:04:58","71.8","69.7","93","30.26","177","2.1","5","0.00","0.00"
"07:09:59","72.1","69.8","92.5","30.26","182","2.7","5","0.00","0.00"
"07:14:56","72.4","69.9","92","30.26","179","2.3","4","0.00","0.00"
"07:19:57","72.7","70.1","91.9","30.26","186","2.1","4","0.00","0.00"
"07:24:58","73","70.2","91.1","30.26","187","1.8","5","0.00","0.00"
"07:29:59","73.3","70.5","90.8","30.26","186","2.3","5","0.00","0.00"
"07:34:56","73.7","70.6","90","30.26","179","2.6","7","0.00","0.00"
"07:39:56","74","70.9","90","30.26","191","3","8.1","0.00","0.00"
"07:44:58","74.4","71","89.4","30.26","176","2.1","5","0.00","0.00"
"07:49:58","74.8","71.1","88.4","30.26","176","2.6","6","0.00","0.00"
"07:54:56","75.2","71.3","87.9","30.26","190","2.4","5","0.00","0.00"
"07:59:58","75.5","71.5","87.4","30.26","157","1.5","4","0.00","0.00"
"08:04:59","75.8","71.7","87.1","30.26","171","2.3","5","0.00","0.00"
"08:09:56","76.2","71.8","86.5","30.26","167","1.7","5","0.00","0.00"
"08:14:57","76.6","72.2","86.5","30.27","177","1.9","5","0.00","0.00"
"08:19:58","77.2","72.3","85.1","30.27","204","2.8","7","0.00","0.00"
"08:24:56","77.7","72.8","84.8","30.27","192","2.1","5","0.00","0.00"
"08:29:58","78.1","72.6","83.3","30.27","176","2.1","4.6","0.00","0.00"
"08:34:59","78.5","72.9","83.1","30.27","224","0.6","4","0.00","0.00"
"08:39:57","78.8","73.1","82.7","30.27","213","2.3","5","0.00","0.00"
"08:44:58","79.1","73","81.8","30.27","194","2.6","5","0.00","0.00"
"08:49:59","79.3","73.1","81.2","30.27","188","2.8","5","0.00","0.00"
"08:54:59","79.6","73.5","81.7","30.27","192","2","5","0.00","0.00"
"08:59:56","80","73.5","80.8","30.27","201","2.1","5","0.00","0.00"
"09:04:56","80.3","73.6","80.2","30.27","176","1.9","4","0.00","0.00"
"09:09:58","80.7","73.9","79.9","30.27","172","1.6","4","0.00","0.00"
"09:14:58","81","74","79.2","30.27","139","1.4","3.5","0.00","0.00"
"09:19:59","81.4","74.1","78.5","30.26","176","1.5","4","0.00","0.00"
"09:24:59","81.7","73.8","77","30.26","179","1.9","3.5","0.00","0.00"
"09:29:56","82.1","74.3","77.5","30.26","180","1.6","4","0.00","0.00"
"09:34:57","82.4","74.3","76.4","30.26","184","1.3","3.5","0.00","0.00"
"09:39:57","82.7","74.6","76.4","30.26","165","1.8","4","0.00","0.00"
"09:44:57","83","74.5","75.8","30.26","186","1.7","5","0.00","0.00"
"09:49:57","83.2","74.5","75.3","30.26","187","1.9","5","0.00","0.00"
"09:54:58","83.3","74.5","74.9","30.26","188","2.2","4","0.00","0.00"
"09:59:57","83.6","74.6","74.5","30.26","220","1.7","4","0.00","0.00"
"10:04:59","83.9","75.3","75.5","30.25","173","0.9","3.5","0.00","0.00"
"10:09:56","84.3","75.2","74.4","30.25","168","2.3","5","0.00","0.00"
"10:14:56","84.5","74.8","72.8","30.25","146","0.8","3.5","0.00","0.00"
"10:19:57","84.8","75.5","73.7","30.25","144","0","0","0.00","0.00"
"10:24:58","85.1","75.5","73.1","30.25","143","0","0","0.00","0.00"
"10:29:59","85.3","75.3","72.1","30.25","160","0.4","3.5","0.00","0.00"
"10:34:59","85.7","75.4","71.6","30.25","165","1.3","3.5","0.00","0.00"
"10:39:59","86","75.8","71.6","30.25","169","1.5","4","0.00","0.00"
"10:44:59","86.4","75.6","70.5","30.25","183","2.1","5","0.00","0.00"
"10:49:59","86.6","74.9","68.1","30.25","149","2.4","5","0.00","0.00"
"10:54:59","87.1","75.4","68.5","30.25","182","2.2","4.6","0.00","0.00"
"10:59:56","87.4","75.4","67.6","30.25","180","1.9","6","0.00","0.00"
"11:04:56","87.7","75.5","67.4","30.25","154","2.1","4","0.00","0.00"
"11:09:58","88","75.2","66.1","30.25","180","2.7","6","0.00","0.00"
"11:14:58","88","74.9","65.4","30.25","174","2.8","7","0.00","0.00"
"11:19:57","88.1","74.9","65","30.25","152","1.6","4","0.00","0.00"
"11:24:57","88.4","75.6","65.9","30.25","204","1.8","5","0.00","0.00"
"11:29:57","88.7","74.8","63.7","30.25","191","2.8","6","0.00","0.00"
"11:34:57","88.8","74.6","63.1","30.25","208","2.5","5","0.00","0.00"
"11:39:56","89","74.4","62.4","30.25","238","2.6","7","0.00","0.00"
"11:44:57","89","74.4","62.1","30.25","121","2","6","0.00","0.00"
"11:49:56","89.2","75.1","63.3","30.25","165","2.3","5","0.00","0.00"
"11:54:58","89.6","74.2","60.8","30.25","173","2.4","4","0.00","0.00"
"11:59:59","89.8","74.3","60.5","30.25","209","2.9","6","0.00","0.00"
"12:04:56","89.9","75.7","63.1","30.24","215","2.8","5.8","0.00","0.00"
"12:09:58","90.1","75.5","62.3","30.24","204","2.5","7","0.00","0.00"
"12:14:58","90.3","74.4","59.8","30.24","145","3","10","0.00","0.00"
"12:19:58","90.5","74.1","58.9","30.24","190","4","10.4","0.00","0.00"
"12:24:58","90.4","73.8","58.5","30.24","175","2.6","6","0.00","0.00"
"12:29:59","90.4","74.5","59.8","30.24","206","3.1","5.8","0.00","0.00"
"12:34:56","90.5","73.6","57.8","30.24","167","3.3","6","0.00","0.00"
"12:39:56","90.6","73.3","57","30.24","190","3.8","9.2","0.00","0.00"
"12:44:57","90.8","74.4","58.8","30.24","187","3.3","7","0.00","0.00"
"12:49:57","90.9","73.9","57.6","30.23","168","4","7","0.00","0.00"
"12:54:58","90.9","73.3","56.5","30.23","145","3.5","6.9","0.00","0.00"
"12:59:59","91","74.8","59.2","30.23","194","2.6","7","0.00","0.00"
"13:04:56","91.2","74.3","58","30.23","249","2.8","6","0.00","0.00"
"13:09:58","91.6","74.5","57.7","30.23","223","2.6","7","0.00","0.00"
"13:14:58","91.8","74.6","57.5","30.23","207","3","6","0.00","0.00"
"13:19:55","91.8","74","56.2","30.22","169","3.2","7","0.00","0.00"
"13:24:56","91.9","73.5","55.1","30.22","196","3.7","7","0.00","0.00"
"13:29:57","91.9","74.1","56.2","30.22","205","3.6","11","0.00","0.00"
"13:34:56","92","73.8","55.4","30.22","179","3.1","8.1","0.00","0.00"
"13:39:59","92.2","73.7","54.9","30.22","189","4.1","11","0.00","0.00"
"13:44:56","92.1","74.2","56.2","30.22","197","3.8","11.5","0.00","0.00"
"13:49:57","92.1","74.7","57.1","30.22","191","3.1","9","0.00","0.00"
"13:54:57","92.2","73.6","54.9","30.22","197","3.8","8.1","0.00","0.00"
"13:59:58","92.1","74","55.7","30.22","217","4.7","10.4","0.00","0.00"
"14:04:59","92.2","74.4","56.4","30.21","207","3.9","7","0.00","0.00"
"14:09:56","92.4","74.3","55.8","30.21","204","2.9","6","0.00","0.00"
"14:14:56","92.4","73.8","54.9","30.21","254","3.7","10.4","0.00","0.00"
"14:19:56","92.3","73.5","54.5","30.21","192","3.1","6","0.00","0.00"
"14:24:57","92.4","73.7","54.8","30.21","220","3.3","6","0.00","0.00"
"14:29:57","92.4","74.8","56.6","30.21","211","2.9","5","0.00","0.00"
"14:34:59","92.7","74.3","55.2","30.21","193","3","6","0.00","0.00"
"14:39:59","92.9","74.2","54.7","30.21","239","3.3","6","0.00","0.00"
"14:44:56","92.9","73.7","53.8","30.21","203","3.1","5","0.00","0.00"
"14:49:57","93.1","74.8","55.5","30.20","222","2.6","6","0.00","0.00"
"14:54:58","93.3","74.1","53.9","30.20","182","3.3","10","0.00","0.00"
"14:59:59","93.6","74.4","53.9","30.20","187","3.4","10.4","0.00","0.00"
"15:04:56","93.8","74.1","53.1","30.19","193","3.3","10.4","0.00","0.00"
"15:09:58","93.9","73.4","51.8","30.19","215","2.6","7","0.00","0.00"
"15:14:58","93.7","74.4","53.9","30.19","193","2.7","6","0.00","0.00"
"15:19:59","93.6","73.8","52.9","30.19","205","3","7","0.00","0.00"
"15:24:56","93.7","75.1","55.1","30.19","205","3.4","6","0.00","0.00"
"15:29:57","94.1","75.3","54.6","30.19","179","3","7","0.00","0.00"
"15:34:58","94.3","74.6","53.2","30.19","219","4.1","8","0.00","0.00"
"15:39:58","94.1","74.9","53.9","30.19","225","3.8","10.4","0.00","0.00"
"15:44:59","94.1","75","54.2","30.19","230","3.1","6.9","0.00","0.00"
"15:49:56","94.3","75.6","54.9","30.19","200","4.2","9","0.00","0.00"
"15:54:57","94.2","74.8","53.6","30.19","168","3.9","9.2","0.00","0.00"
"15:59:57","93.9","74.5","53.6","30.19","201","2.9","6","0.00","0.00"
"16:04:58","93.8","75.1","55","30.18","224","3.5","7","0.00","0.00"
"16:09:56","93.6","74.2","53.6","30.18","211","3.4","6.9","0.00","0.00"
"16:14:57","93.2","73.8","53.5","30.18","191","4.1","12","0.00","0.00"
"16:19:58","93.1","74.7","55.4","30.18","190","3.5","10.4","0.00","0.00"
"16:24:59","93.3","74.7","55","30.18","199","3.5","10.4","0.00","0.00"
"16:29:56","93.3","73.3","52.6","30.18","192","3.9","9.2","0.00","0.00"
"16:34:57","93.4","75.3","55.9","30.17","162","2.8","5","0.00","0.00"
"16:39:57","93.6","75.8","56.6","30.17","190","3.4","9","0.00","0.00"
"16:44:59","93.9","75.7","55.7","30.17","193","3.8","9","0.00","0.00"
"16:49:57","94.3","77","57.5","30.17","182","2.5","7","0.00","0.00"
"16:54:58","94.4","76.5","56.5","30.17","189","3.8","9.2","0.00","0.00"
"16:59:58","94","75.2","54.8","30.17","175","3.4","8","0.00","0.00"
"17:04:58","93.6","75.3","55.5","30.16","179","3.8","9","0.00","0.00"
"17:09:56","93.7","74.4","53.7","30.16","196","2.7","9.2","0.00","0.00"
"17:14:56","93.9","75.8","55.9","30.16","187","2.9","7","0.00","0.00"
"17:19:56","94.1","75.5","55.2","30.16","199","2.8","5.8","0.00","0.00"
"17:24:56","94.1","74.6","53.4","30.16","193","5.3","10.4","0.00","0.00"
"17:29:56","93.6","74.5","54","30.16","188","3.9","10","0.00","0.00"
"17:34:57","93.4","74.2","53.8","30.15","190","3.5","10.4","0.00","0.00"
"17:39:56","93.4","73.7","53.1","30.15","194","4.4","13","0.00","0.00"
"17:44:57","93.3","74.3","54.4","30.15","201","3.9","10","0.00","0.00"
"17:49:58","92.9","74.1","54.5","30.15","215","4.3","10.4","0.00","0.00"
"17:54:58","92.8","74.1","54.9","30.15","222","3.4","7","0.00","0.00"
"17:59:58","92.5","74.2","55.4","30.15","232","4.1","10.4","0.00","0.00"
"18:04:59","92.3","74.8","56.7","30.15","177","2.6","7","0.00","0.00"
"18:09:57","92.5","74.4","55.8","30.15","203","3.4","7","0.00","0.00"
"18:14:56","92.3","74.1","55.5","30.15","209","4","9.2","0.00","0.00"
"18:19:57","92","74.1","56","30.14","182","2.9","6","0.00","0.00"
"18:24:57","91.8","74.1","56.4","30.14","186","4.1","11","0.00","0.00"
"18:29:58","91.6","74.2","57","30.14","185","3.7","9","0.00","0.00"
"18:34:59","91.3","73.8","56.8","30.14","194","3.8","9.2","0.00","0.00"
"18:39:58","91.1","74.1","57.7","30.14","157","3.2","7","0.00","0.00"
"18:44:59","91","74.3","58.1","30.14","167","2.3","7","0.00","0.00"
"18:49:56","90.9","74.5","58.8","30.13","203","3","6.9","0.00","0.00"
"18:54:56","90.7","73.8","57.8","30.13","164","3.3","7","0.00","0.00"
"18:59:56","90.4","73.7","58.2","30.13","177","3.9","7","0.00","0.00"
"19:04:56","90","73.7","58.8","30.13","183","3.7","9","0.00","0.00"
"19:09:58","89.8","74","59.9","30.13","190","4.4","9.2","0.00","0.00"
"19:14:58","89.5","74.3","60.9","30.13","167","2.5","4.6","0.00","0.00"
"19:19:59","89.3","74.4","61.6","30.13","183","2.1","6","0.00","0.00"
"19:24:59","89.2","74.1","61.1","30.13","183","3.2","7","0.00","0.00"
"19:29:59","89.1","74.3","61.8","30.14","176","2","5","0.00","0.00"
"19:34:56","88.9","74.3","62.3","30.14","151","2.8","7","0.00","0.00"
"19:39:59","88.7","74.2","62.3","30.14","175","2.7","6","0.00","0.00"
"19:44:59","88.5","74.2","62.8","30.14","198","2.7","6","0.00","0.00"
"19:49:59","88.2","74","63","30.14","172","2.7","5","0.00","0.00"
"19:54:56","88","73.7","62.8","30.14","189","3.2","7","0.00","0.00"
"19:59:56","87.9","73.7","63","30.14","173","2.9","6","0.00","0.00"
"20:04:57","87.6","73.4","63","30.14","182","3","6","0.00","0.00"
"20:09:59","87.5","73.3","63","30.14","188","2.8","9","0.00","0.00"
"20:14:59","87.4","73.3","63","30.14","178","2.9","9.2","0.00","0.00"
"20:19:56","87.2","73.1","63","30.14","182","3","10","0.00","0.00"
"20:24:56","87.1","73.1","63.2","30.14","177","1.8","5.8","0.00","0.00"
"20:29:58","86.9","73.1","63.7","30.14","195","1.9","5","0.00","0.00"
"20:34:59","86.6","73","64","30.14","189","1.7","4","0.00","0.00"
"20:39:59","86.4","72.8","64","30.14","185","1.1","3.5","0.00","0.00"
"20:44:58","86.1","72.6","64.2","30.14","187","1.8","4","0.00","0.00"
"20:49:56","85.9","72.3","64","30.14","197","2.2","6","0.00","0.00"
"20:54:58","85.7","72.5","64.9","30.14","195","1.7","4","0.00","0.00"
"20:59:56","85.4","72.3","65","30.14","187","1.9","4","0.00","0.00"
"21:04:58","85.2","72.1","65","30.14","200","2","4","0.00","0.00"
"21:09:56","85","72","65.2","30.14","185","1.7","5","0.00","0.00"
"21:14:57","84.8","72.1","65.7","30.14","190","1.9","3.5","0.00","0.00"
"21:19:58","84.6","72","66","30.14","202","0.6","3.5","0.00","0.00"
"21:24:56","84.4","72","66.4","30.14","202","1.3","3.5","0.00","0.00"
"21:29:57","84.2","72.1","67.1","30.15","216","0.7","4","0.00","0.00"
"21:34:58","83.9","72.1","67.8","30.15","242","1.6","3.5","0.00","0.00"
"21:39:59","83.7","72","68","30.15","180","0.8","3","0.00","0.00"
"21:44:56","83.5","71.8","68","30.15","178","1.1","3.5","0.00","0.00"
"21:49:57","83.3","72","68.8","30.15","178","1.4","3.5","0.00","0.00"
"21:54:59","83","71.9","69.2","30.15","178","0.8","2.3","0.00","0.00"
"21:59:59","82.8","71.9","69.9","30.16","178","1.1","3","0.00","0.00"
"22:04:57","82.6","71.8","70","30.16","178","1.2","3.5","0.00","0.00"
"22:09:59","82.4","71.7","70.3","30.16","178","0.6","2.3","0.00","0.00"
"22:14:59","82.1","71.8","71","30.16","186","0.5","3","0.00","0.00"
"22:19:57","81.9","71.6","71","30.16","194","1.6","3.5","0.00","0.00"
"22:24:58","81.8","71.6","71.3","30.16","189","1.6","4","0.00","0.00"
"22:29:59","81.7","71.7","71.8","30.16","194","1.5","4","0.00","0.00"
"22:34:55","81.6","71.7","72","30.16","202","2","4","0.00","0.00"
"22:39:56","81.5","71.6","72","30.16","206","1.4","4","0.00","0.00"
"22:44:58","81.4","71.5","72","30.16","207","0.8","2.3","0.00","0.00"
"22:49:59","81.3","71.6","72.6","30.16","207","0.5","2.3","0.00","0.00"
"22:54:57","81.1","71.6","72.9","30.16","203","1.4","4","0.00","0.00"
"22:59:58","81.1","71.6","73","30.16","201","1.6","3.5","0.00","0.00"
"23:04:59","81","71.5","73","30.16","198","1.2","4","0.00","0.00"
"23:09:56","80.9","71.4","73","30.16","194","1.5","3.5","0.00","0.00"
"23:14:56","80.8","71.3","73","30.16","196","1.4","4","0.00","0.00"
"23:19:57","80.8","71.3","73","30.16","197","1.4","3.5","0.00","0.00"
"23:24:59","80.7","71.2","73","30.16","195","1.5","3.5","0.00","0.00"
"23:29:56","80.6","71.1","73","30.16","194","1.5","4","0.00","0.00"
"23:34:57","80.5","71","73","30.16","194","1.9","4","0.00","0.00"
"23:39:57","80.4","71","73.2","30.16","185","2.4","5","0.00","0.00"
"23:44:58","80.3","71.2","73.7","30.16","184","1.8","4","0.00","0.00"
"23:49:58","80.3","71.3","74","30.16","179","2.1","6","0.00","0.00"
"23:54:59","80.2","71.2","74","30.16","179","2.4","5","0.00","0.00"
"23:59:56","80","71","74","30.16","191","2.2","5","0.00","0.00"
